QPF
0.00 0.00 0.00 0.00 0.00 0.00 0.00 0.00 0.00 0.00 0.00 0.00 0.00 0.00 0.00 0.00 0.00 0.00 0.00 0.00 0.00 0.00 0.00 0.00 0.00 0.00 0.00 0.00 0.00 0.00 0.00 0.00 0.00 0.01 0.01 0.02 0.02 0.03 0.03 0.04 0.04 0.05 0.06 0.09
0.00 0.00 0.00 0.00 0.00 0.00 0.00 0.00 0.00 0.00 0.00 0.00 0.00 0.00 0.00 0.00 0.00 0.00 0.00 0.00 0.00 0.00 0.00 0.00 0.00 0.00 0.00 0.00 0.00 0.00 0.00 0.00 0.01 0.01 0.01 0.02 0.02 0.03 0.04 0.04 0.06 0.06 0.06 0.06
0.00 0.00 0.00 0.00 0.00 0.00 0.00 0.00 0.00 0.00 0.00 0.00 0.00 0.00 0.01 0.02 0.01 0.00 0.00 0.00 0.00 0.00 0.00 0.00 0.00 0.00 0.00 0.00 0.01 0.01 0.01 0.01 0.01 0.01 0.02 0.03 0.04 0.05 0.06 0.06 0.07 0.06 0.04 0.04
0.00 0.00 0.00 0.00 0.00 0.00 0.00 0.00 0.00 0.00 0.00 0.00 0.00 0.00 0.01 0.02 0.01 0.00 0.00 0.00 0.00 0.00 0.01 0.00 0.00 0.01 0.00 0.01 0.02 0.03 0.02 0.02 0.03 0.03 0.05 0.05 0.05 0.06 0.07 0.06 0.05 0.05 0.04 0.03
0.00 0.00 0.00 0.00 0.00 0.00 0.00 0.00 0.00 0.00 0.00 0.00 0.00 0.00 0.01 0.03 0.02 0.00 0.00 0.00 0.00 0.00 0.01 0.01 0.01 0.01 0.01 0.02 0.04 0.04 0.04 0.04 0.05 0.05 0.05 0.06 0.05 0.05 0.05 0.04 0.03 0.03 0.03 0.02
0.00 0.00 0.00 0.00 0.00 0.00 0.00 0.00 0.00 0.00 0.00 0.00 0.00 0.00 0.01 0.00 0.00 0.01 0.01 0.00 0.00 0.00 0.01 0.01 0.01 0.02 0.03 0.04 0.05 0.06 0.07 0.08 0.09 0.11 0.11 0.08 0.05 0.05 0.04 0.04 0.03 0.03 0.02 0.02
0.00 0.00 0.00 0.00 0.00 0.00 0.00 0.00 0.00 0.00 0.00 0.00 0.00 0.00 0.00 0.00 0.01 0.02 0.02 0.00 0.00 0.00 0.01 0.01 0.01 0.02 0.04 0.06 0.08 0.09 0.09 0.10 0.10 0.09 0.08 0.07 0.07 0.07 0.06 0.05 0.04 0.03 0.03 0.03
0.00 0.00 0.01 0.00 0.00 0.01 0.01 0.00 0.00 0.00 0.00 0.00 0.00 0.00 0.00 0.00 0.00 0.01 0.00 0.00 0.00 0.00 0.00 0.01 0.02 0.04 0.05 0.06 0.08 0.09 0.08 0.07 0.07 0.05 0.05 0.06 0.08 0.08 0.07 0.05 0.04 0.04 0.04 0.04
0.01 0.02 0.01 0.01 0.01 0.00 0.00 0.00 0.00 0.00 0.00 0.01 0.00 0.00 0.01 0.00 0.00 0.00 0.00 0.00 0.00 0.01 0.02 0.03 0.04 0.05 0.06 0.07 0.08 0.06 0.05 0.04 0.04 0.04 0.04 0.04 0.05 0.06 0.05 0.05 0.05 0.05 0.05 0.05
0.02 0.01 0.01 0.03 0.02 0.01 0.01 0.01 0.00 0.01 0.01 0.02 0.02 0.01 0.00 0.00 0.00 0.00 0.00 0.01 0.01 0.02 0.02 0.04 0.05 0.06 0.07 0.08 0.06 0.04 0.04 0.04 0.04 0.04 0.04 0.04 0.04 0.04 0.03 0.04 0.04 0.05 0.05 0.06
0.03 0.02 0.03 0.04 0.03 0.02 0.02 0.01 0.01 0.01 0.02 0.03 0.03 0.02 0.02 0.03 0.02 0.02 0.01 0.02 0.02 0.03 0.04 0.04 0.06 0.08 0.10 0.10 0.09 0.08 0.07 0.06 0.05 0.03 0.03 0.03 0.03 0.02 0.02 0.02 0.03 0.04 0.04 0.04
0.04 0.03 0.04 0.04 0.04 0.02 0.03 0.03 0.03 0.03 0.04 0.04 0.04 0.03 0.03 0.04 0.03 0.02 0.02 0.03 0.03 0.03 0.04 0.04 0.05 0.07 0.07 0.08 0.10 0.11 0.09 0.06 0.04 0.02 0.02 0.02 0.01 0.02 0.02 0.02 0.03 0.03 0.02 0.02
0.03 0.02 0.03 0.03 0.03 0.03 0.03 0.04 0.05 0.06 0.04 0.04 0.05 0.05 0.04 0.03 0.03 0.03 0.03 0.04 0.04 0.05 0.04 0.03 0.04 0.04 0.04 0.04 0.05 0.07 0.08 0.06 0.03 0.03 0.03 0.02 0.02 0.03 0.04 0.04 0.04 0.03 0.02 0.01
0.06 0.02 0.03 0.04 0.04 0.05 0.05 0.06 0.06 0.08 0.05 0.04 0.06 0.08 0.09 0.08 0.05 0.04 0.04 0.03 0.03 0.03 0.04 0.04 0.04 0.03 0.03 0.03 0.03 0.03 0.05 0.07 0.07 0.05 0.04 0.04 0.03 0.04 0.04 0.05 0.04 0.04 0.04 0.03
0.08 0.03 0.02 0.03 0.04 0.05 0.06 0.07 0.07 0.08 0.06 0.04 0.04 0.06 0.07 0.08 0.06 0.04 0.03 0.03 0.02 0.02 0.03 0.03 0.03 0.02 0.02 0.02 0.02 0.02 0.03 0.05 0.05 0.04 0.04 0.04 0.05 0.06 0.07 0.07 0.06 0.05 0.05 0.04
0.08 0.05 0.03 0.03 0.03 0.04 0.05 0.06 0.05 0.05 0.05 0.03 0.03 0.03 0.03 0.03 0.02 0.02 0.02 0.02 0.02 0.02 0.02 0.02 0.02 0.02 0.02 0.01 0.01 0.02 0.02 0.02 0.01 0.01 0.02 0.04 0.05 0.07 0.07 0.07 0.07 0.05 0.05 0.05
0.08 0.06 0.05 0.04 0.04 0.05 0.06 0.06 0.05 0.04 0.04 0.03 0.02 0.03 0.03 0.03 0.04 0.03 0.03 0.02 0.01 0.01 0.02 0.02 0.02 0.01 0.01 0.02 0.03 0.04 0.03 0.02 0.02 0.02 0.03 0.04 0.04 0.05 0.05 0.05 0.05 0.04 0.03 0.03
0.05 0.04 0.06 0.06 0.05 0.06 0.05 0.04 0.04 0.03 0.03 0.03 0.03 0.04 0.05 0.06 0.06 0.06 0.06 0.04 0.03 0.03 0.03 0.03 0.02 0.02 0.02 0.02 0.03 0.04 0.04 0.04 0.03 0.03 0.04 0.04 0.03 0.04 0.04 0.04 0.04 0.04 0.04 0.03
0.03 0.02 0.03 0.04 0.05 0.04 0.03 0.03 0.03 0.03 0.03 0.06 0.05 0.05 0.06 0.09 0.10 0.10 0.11 0.10 0.09 0.07 0.05 0.03 0.03 0.02 0.02 0.02 0.03 0.03 0.03 0.04 0.04 0.03 0.03 0.03 0.03 0.04 0.04 0.04 0.03 0.03 0.03 0.03
0.02 0.02 0.02 0.03 0.04 0.04 0.03 0.02 0.02 0.02 0.01 0.02 0.04 0.06 0.07 0.08 0.11 0.13 0.13 0.12 0.11 0.07 0.04 0.03 0.02 0.02 0.01 0.02 0.03 0.03 0.03 0.03 0.03 0.04 0.03 0.03 0.03 0.03 0.03 0.03 0.02 0.02 0.02 0.03
0.02 0.02 0.02 0.03 0.04 0.04 0.05 0.04 0.04 0.03 0.03 0.02 0.03 0.04 0.05 0.06 0.06 0.08 0.13 0.12 0.10 0.06 0.04 0.03 0.03 0.02 0.02 0.02 0.03 0.03 0.03 0.04 0.05 0.04 0.04 0.04 0.03 0.03 0.02 0.02 0.02 0.02 0.02 0.03
0.03 0.03 0.02 0.02 0.03 0.04 0.05 0.05 0.04 0.04 0.04 0.04 0.03 0.04 0.04 0.05 0.05 0.05 0.06 0.06 0.06 0.05 0.04 0.04 0.03 0.03 0.03 0.03 0.03 0.03 0.04 0.05 0.06 0.05 0.05 0.05 0.04 0.03 0.02 0.02 0.02 0.02 0.02 0.02
0.03 0.03 0.03 0.03 0.04 0.04 0.04 0.04 0.04 0.04 0.04 0.04 0.03 0.04 0.06 0.06 0.05 0.05 0.05 0.04 0.04 0.04 0.05 0.04 0.04 0.04 0.05 0.04 0.03 0.03 0.04 0.05 0.05 0.05 0.04 0.04 0.04 0.03 0.03 0.03 0.02 0.02 0.02 0.03
0.03 0.03 0.03 0.03 0.04 0.04 0.05 0.05 0.05 0.05 0.03 0.03 0.03 0.04 0.05 0.05 0.05 0.05 0.04 0.05 0.05 0.05 0.04 0.04 0.05 0.05 0.06 0.06 0.06 0.05 0.06 0.07 0.06 0.06 0.05 0.04 0.04 0.04 0.03 0.03 0.02 0.02 0.02 0.02
0.04 0.04 0.04 0.05 0.05 0.05 0.05 0.05 0.05 0.05 0.04 0.04 0.04 0.04 0.03 0.04 0.04 0.04 0.04 0.03 0.04 0.04 0.03 0.03 0.04 0.04 0.03 0.02 0.02 0.03 0.04 0.04 0.04 0.04 0.04 0.04 0.04 0.04 0.04 0.03 0.03 0.03 0.02 0.02
0.05 0.06 0.07 0.06 0.06 0.06 0.06 0.06 0.07 0.07 0.07 0.07 0.06 0.06 0.06 0.05 0.04 0.04 0.03 0.03 0.02 0.02 0.02 0.02 0.02 0.02 0.01 0.01 0.01 0.03 0.03 0.02 0.02 0.02 0.02 0.02 0.02 0.02 0.01 0.01 0.01 0.01 0.01 0.01
0.06 0.06 0.07 0.07 0.06 0.05 0.06 0.06 0.07 0.07 0.07 0.06 0.06 0.06 0.06 0.07 0.06 0.05 0.04 0.04 0.03 0.03 0.03 0.03 0.03 0.03 0.02 0.02 0.02 0.02 0.03 0.02 0.02 0.01 0.01 0.01 0.01 0.01 0.01 0.01 0.01 0.01 0.01 0.01
MSLP
1007.18 1007.39 1007.60 1007.79 1007.94 1008.03 1008.03 1007.92 1007.71 1007.40 1007.03 1006.63 1006.26 1005.99 1005.83 1005.83 1005.97 1006.24 1006.59 1006.99 1007.37 1007.71 1007.99 1008.20 1008.39 1008.57 1008.79 1009.08 1009.46 1009.91 1010.43 1010.97 1011.49 1011.95 1012.32 1012.59 1012.75 1012.82 1012.85 1012.86 1012.88 1012.93 1013.02 1013.16
1007.80 1007.88 1007.90 1007.85 1007.73 1007.56 1007.32 1007.04 1006.74 1006.42 1006.13 1005.89 1005.73 1005.67 1005.71 1005.86 1006.09 1006.38 1006.68 1006.98 1007.22 1007.42 1007.56 1007.67 1007.78 1007.92 1008.13 1008.43 1008.83 1009.31 1009.86 1010.43 1010.98 1011.47 1011.87 1012.18 1012.38 1012.51 1012.58 1012.63 1012.67 1012.73 1012.82 1012.93
1008.48 1008.42 1008.24 1007.96 1007.60 1007.17 1006.73 1006.29 1005.90 1005.59 1005.37 1005.27 1005.29 1005.43 1005.65 1005.95 1006.27 1006.58 1006.86 1007.07 1007.20 1007.27 1007.29 1007.29 1007.32 1007.40 1007.58 1007.86 1008.26 1008.74 1009.30 1009.87 1010.44 1010.96 1011.40 1011.76 1012.02 1012.21 1012.34 1012.44 1012.51 1012.59 1012.67 1012.77
1009.07 1008.85 1008.50 1008.02 1007.45 1006.82 1006.21 1005.65 1005.19 1004.89 1004.74 1004.77 1004.95 1005.26 1005.65 1006.08 1006.49 1006.85 1007.11 1007.27 1007.33 1007.31 1007.23 1007.14 1007.09 1007.11 1007.23 1007.48 1007.84 1008.29 1008.82 1009.39 1009.95 1010.48 1010.96 1011.36 1011.68 1011.94 1012.13 1012.28 1012.40 1012.50 1012.58 1012.67
1009.38 1009.03 1008.54 1007.91 1007.18 1006.42 1005.70 1005.07 1004.60 1004.32 1004.25 1004.39 1004.72 1005.18 1005.71 1006.26 1006.76 1007.17 1007.45 1007.60 1007.62 1007.54 1007.40 1007.25 1007.14 1007.10 1007.16 1007.35 1007.65 1008.04 1008.52 1009.04 1009.58 1010.10 1010.59 1011.02 1011.40 1011.71 1011.97 1012.17 1012.33 1012.46 1012.55 1012.63
1009.29 1008.84 1008.25 1007.53 1006.73 1005.92 1005.16 1004.54 1004.10 1003.88 1003.91 1004.16 1004.62 1005.21 1005.86 1006.51 1007.10 1007.56 1007.88 1008.04 1008.06 1007.97 1007.81 1007.63 1007.47 1007.38 1007.38 1007.50 1007.72 1008.04 1008.44 1008.89 1009.37 1009.86 1010.34 1010.78 1011.19 1011.55 1011.86 1012.12 1012.32 1012.48 1012.59 1012.67
1008.76 1008.24 1007.61 1006.87 1006.09 1005.31 1004.61 1004.06 1003.72 1003.61 1003.75 1004.12 1004.69 1005.39 1006.13 1006.87 1007.52 1008.04 1008.40 1008.60 1008.64 1008.56 1008.41 1008.22 1008.04 1007.92 1007.87 1007.91 1008.05 1008.27 1008.58 1008.94 1009.35 1009.78 1010.23 1010.67 1011.10 1011.49 1011.85 1012.15 1012.40 1012.58 1012.72 1012.81
1007.85 1007.31 1006.68 1006.00 1005.31 1004.65 1004.10 1003.70 1003.51 1003.55 1003.82 1004.31 1004.98 1005.75 1006.56 1007.34 1008.04 1008.59 1008.99 1009.22 1009.30 1009.25 1009.12 1008.95 1008.78 1008.63 1008.54 1008.52 1008.57 1008.70 1008.90 1009.17 1009.49 1009.86 1010.27 1010.69 1011.12 1011.54 1011.93 1012.27 1012.56 1012.78 1012.94 1013.04
1006.74 1006.20 1005.63 1005.06 1004.52 1004.06 1003.71 1003.52 1003.52 1003.74 1004.16 1004.76 1005.50 1006.32 1007.16 1007.95 1008.64 1009.20 1009.61 1009.86 1009.97 1009.96 1009.87 1009.73 1009.56 1009.41 1009.29 1009.22 1009.20 1009.24 1009.35 1009.52 1009.76 1010.06 1010.42 1010.82 1011.24 1011.68 1012.10 1012.48 1012.80 1013.06 1013.25 1013.38
1005.66 1005.13 1004.65 1004.22 1003.88 1003.64 1003.53 1003.58 1003.80 1004.20 1004.76 1005.45 1006.23 1007.06 1007.88 1008.64 1009.29 1009.82 1010.21 1010.46 1010.58 1010.60 1010.54 1010.43 1010.29 1010.14 1010.01 1009.90 1009.82 1009.80 1009.83 1009.92 1010.08 1010.32 1010.63 1011.01 1011.43 1011.88 1012.32 1012.74 1013.11 1013.40 1013.62 1013.77
1004.81 1004.32 1003.93 1003.66 1003.52 1003.51 1003.64 1003.92 1004.34 1004.90 1005.57 1006.31 1007.11 1007.90 1008.66 1009.34 1009.91 1010.38 1010.71 1010.94 1011.05 1011.08 1011.05 1010.97 1010.86 1010.73 1010.59 1010.47 1010.36 1010.29 1010.26 1010.29 1010.40 1010.58 1010.86 1011.22 1011.63 1012.09 1012.56 1013.01 1013.42 1013.75 1014.00 1014.17
1004.40 1003.93 1003.62 1003.49 1003.52 1003.70 1004.04 1004.51 1005.09 1005.76 1006.49 1007.25 1008.01 1008.73 1009.38 1009.95 1010.42 1010.78 1011.05 1011.22 1011.31 1011.35 1011.34 1011.29 1011.21 1011.11 1010.99 1010.87 1010.75 1010.65 1010.59 1010.58 1010.64 1010.79 1011.04 1011.38 1011.79 1012.26 1012.75 1013.23 1013.66 1014.03 1014.31 1014.51
1004.46 1004.01 1003.77 1003.72 1003.88 1004.20 1004.67 1005.26 1005.94 1006.66 1007.41 1008.14 1008.82 1009.43 1009.96 1010.39 1010.73 1010.99 1011.17 1011.29 1011.36 1011.39 1011.40 1011.39 1011.35 1011.29 1011.20 1011.10 1010.98 1010.88 1010.80 1010.76 1010.80 1010.92 1011.14 1011.46 1011.86 1012.32 1012.82 1013.31 1013.77 1014.17 1014.48 1014.69
1004.97 1004.53 1004.31 1004.32 1004.53 1004.92 1005.46 1006.09 1006.79 1007.51 1008.21 1008.86 1009.44 1009.92 1010.32 1010.62 1010.84 1010.99 1011.09 1011.16 1011.22 1011.26 1011.29 1011.32 1011.33 1011.31 1011.27 1011.19 1011.10 1011.00 1010.91 1010.86 1010.87 1010.96 1011.15 1011.43 1011.81 1012.26 1012.74 1013.24 1013.70 1014.11 1014.44 1014.68
1005.82 1005.37 1005.16 1005.17 1005.39 1005.78 1006.30 1006.92 1007.57 1008.22 1008.84 1009.38 1009.84 1010.20 1010.46 1010.64 1010.75 1010.82 1010.87 1010.91 1010.96 1011.02 1011.09 1011.16 1011.22 1011.26 1011.26 1011.23 1011.16 1011.07 1010.97 1010.91 1010.89 1010.94 1011.08 1011.32 1011.65 1012.06 1012.51 1012.98 1013.44 1013.85 1014.19 1014.45
1006.85 1006.41 1006.19 1006.17 1006.35 1006.69 1007.15 1007.68 1008.25 1008.80 1009.30 1009.72 1010.06 1010.29 1010.45 1010.53 1010.57 1010.59 1010.60 1010.63 1010.70 1010.79 1010.90 1011.02 1011.14 1011.22 1011.27 1011.27 1011.23 1011.15 1011.05 1010.96 1010.91 1010.91 1011.00 1011.17 1011.44 1011.78 1012.18 1012.60 1013.03 1013.42 1013.76 1014.04
1007.93 1007.52 1007.29 1007.24 1007.36 1007.62 1007.98 1008.41 1008.86 1009.28 1009.66 1009.97 1010.19 1010.33 1010.40 1010.41 1010.40 1010.39 1010.40 1010.44 1010.53 1010.66 1010.81 1010.98 1011.15 1011.28 1011.37 1011.41 1011.38 1011.31 1011.20 1011.09 1010.99 1010.94 1010.96 1011.06 1011.24 1011.49 1011.81 1012.17 1012.55 1012.91 1013.24 1013.52
1009.00 1008.63 1008.40 1008.32 1008.39 1008.57 1008.83 1009.14 1009.46 1009.77 1010.03 1010.23 1010.36 1010.42 1010.43 1010.41 1010.37 1010.35 1010.37 1010.43 1010.54 1010.70 1010.90 1011.11 1011.31 1011.49 1011.61 1011.67 1011.66 1011.59 1011.47 1011.33 1011.20 1011.09 1011.03 1011.05 1011.14 1011.30 1011.53 1011.80 1012.11 1012.43 1012.73 1013.01
1010.00 1009.70 1009.50 1009.42 1009.44 1009.55 1009.72 1009.93 1010.15 1010.36 1010.52 1010.63 1010.69 1010.70 1010.67 1010.62 1010.57 1010.55 1010.57 1010.65 1010.78 1010.96 1011.18 1011.42 1011.64 1011.84 1011.98 1012.06 1012.06 1012.00 1011.88 1011.73 1011.56 1011.40 1011.29 1011.22 1011.23 1011.29 1011.43 1011.62 1011.85 1012.10 1012.36 1012.63
1010.95 1010.73 1010.58 1010.51 1010.52 1010.58 1010.69 1010.83 1010.97 1011.09 1011.18 1011.23 1011.23 1011.20 1011.14 1011.07 1011.02 1010.99 1011.01 1011.09 1011.22 1011.41 1011.63 1011.87 1012.10 1012.31 1012.46 1012.55 1012.57 1012.52 1012.41 1012.26 1012.08 1011.90 1011.74 1011.62 1011.55 1011.54 1011.59 1011.69 1011.84 1012.03 1012.25 1012.48
1011.85 1011.72 1011.63 1011.59 1011.60 1011.65 1011.72 1011.81 1011.89 1011.95 1011.99 1011.99 1011.95 1011.89 1011.81 1011.72 1011.65 1011.61 1011.62 1011.68 1011.80 1011.96 1012.17 1012.39 1012.62 1012.82 1012.98 1013.09 1013.13 1013.10 1013.01 1012.88 1012.71 1012.53 1012.36 1012.21 1012.10 1012.04 1012.02 1012.06 1012.14 1012.26 1012.42 1012.61
1012.69 1012.64 1012.61 1012.61 1012.63 1012.67 1012.73 1012.79 1012.83 1012.86 1012.86 1012.83 1012.76 1012.67 1012.57 1012.46 1012.37 1012.30 1012.28 1012.31 1012.40 1012.53 1012.70 1012.90 1013.11 1013.30 1013.47 1013.59 1013.66 1013.67 1013.62 1013.53 1013.40 1013.25 1013.10 1012.95 1012.83 1012.74 1012.69 1012.67 1012.70 1012.77 1012.87 1013.01
1013.43 1013.44 1013.45 1013.48 1013.51 1013.56 1013.61 1013.65 1013.68 1013.69 1013.66 1013.61 1013.52 1013.41 1013.28 1013.15 1013.04 1012.94 1012.89 1012.88 1012.93 1013.02 1013.16 1013.32 1013.51 1013.69 1013.86 1014.00 1014.11 1014.16 1014.17 1014.13 1014.06 1013.97 1013.86 1013.74 1013.64 1013.55 1013.49 1013.45 1013.45 1013.47 1013.54 1013.63
1014.01 1014.04 1014.07 1014.12 1014.16 1014.21 1014.26 1014.29 1014.31 1014.30 1014.27 1014.20 1014.10 1013.98 1013.84 1013.69 1013.55 1013.43 1013.35 1013.31 1013.31 1013.37 1013.47 1013.61 1013.77 1013.95 1014.12 1014.28 1014.42 1014.52 1014.59 1014.61 1014.61 1014.58 1014.53 1014.47 1014.41 1014.35 1014.30 1014.27 1014.26 1014.27 1014.31 1014.37
1014.37 1014.39 1014.42 1014.46 1014.51 1014.55 1014.59 1014.62 1014.64 1014.63 1014.59 1014.52 1014.42 1014.29 1014.15 1014.00 1013.85 1013.72 1013.62 1013.55 1013.53 1013.56 1013.64 1013.75 1013.90 1014.06 1014.24 1014.42 1014.58 1014.72 1014.84 1014.92 1014.99 1015.02 1015.04 1015.04 1015.03 1015.02 1015.01 1015.00 1015.01 1015.02 1015.06 1015.12
1014.46 1014.46 1014.48 1014.50 1014.54 1014.57 1014.61 1014.64 1014.66 1014.65 1014.62 1014.56 1014.47 1014.36 1014.22 1014.08 1013.94 1013.82 1013.71 1013.64 1013.61 1013.63 1013.68 1013.78 1013.92 1014.07 1014.25 1014.43 1014.60 1014.77 1014.92 1015.05 1015.16 1015.25 1015.32 1015.38 1015.43 1015.47 1015.51 1015.54 1015.59 1015.64 1015.69 1015.77
1014.32 1014.29 1014.28 1014.29 1014.31 1014.34 1014.38 1014.42 1014.44 1014.45 1014.44 1014.40 1014.33 1014.24 1014.14 1014.02 1013.90 1013.79 1013.70 1013.64 1013.62 1013.63 1013.68 1013.77 1013.89 1014.03 1014.19 1014.36 1014.54 1014.70 1014.86 1015.01 1015.14 1015.26 1015.38 1015.48 1015.58 1015.67 1015.76 1015.86 1015.95 1016.05 1016.15 1016.27
Thickness
5801 5819 5827 5828 5829 5833 5830 5829 5824 5833 5839 5847 5853 5856 5858 5859 5859 5857 5855 5854 5851 5848 5845 5843 5840 5837 5834 5830 5826 5822 5814 5806 5800 5796 5791 5787 5782 5778 5774 5770 5767 5762 5758 5755
5782 5803 5813 5815 5825 5829 5829 5833 5832 5834 5837 5859 5860 5855 5852 5850 5850 5848 5848 5848 5848 5846 5843 5840 5837 5835 5831 5828 5824 5819 5812 5806 5801 5795 5790 5784 5780 5775 5771 5768 5763 5759 5754 5751
5760 5785 5792 5790 5814 5824 5827 5835 5834 5827 5837 5852 5847 5844 5843 5842 5841 5842 5843 5843 5841 5841 5839 5837 5836 5834 5828 5825 5822 5815 5808 5804 5799 5793 5787 5782 5778 5772 5767 5763 5759 5756 5751 5747
5751 5759 5748 5792 5830 5832 5827 5832 5840 5839 5841 5841 5840 5841 5841 5841 5837 5837 5838 5837 5837 5837 5835 5835 5834 5832 5828 5823 5817 5810 5805 5800 5795 5789 5784 5779 5773 5768 5764 5760 5756 5752 5747 5744
5738 5740 5756 5790 5814 5821 5815 5814 5833 5830 5831 5832 5837 5833 5826 5833 5834 5832 5833 5833 5833 5833 5832 5828 5826 5826 5822 5816 5810 5804 5798 5794 5790 5786 5779 5774 5768 5763 5760 5756 5751 5747 5743 5739
5728 5726 5736 5774 5808 5824 5813 5794 5819 5822 5819 5820 5821 5805 5806 5822 5825 5825 5825 5825 5826 5826 5824 5820 5819 5819 5812 5806 5801 5795 5792 5788 5784 5780 5775 5769 5764 5759 5756 5751 5746 5742 5738 5734
5717 5721 5746 5779 5800 5803 5773 5776 5806 5811 5811 5810 5804 5802 5806 5813 5813 5814 5813 5815 5817 5816 5812 5810 5810 5807 5801 5796 5791 5789 5786 5781 5777 5773 5769 5765 5759 5754 5749 5744 5740 5735 5730 5726
5714 5713 5731 5770 5778 5767 5767 5788 5795 5797 5797 5796 5796 5799 5799 5800 5801 5802 5802 5803 5804 5802 5800 5799 5799 5794 5788 5784 5784 5782 5778 5771 5766 5764 5762 5758 5752 5746 5742 5737 5731 5726 5722 5718
5718 5721 5737 5753 5757 5765 5772 5773 5779 5783 5784 5785 5783 5784 5784 5786 5787 5788 5790 5791 5792 5790 5786 5785 5785 5782 5775 5774 5774 5771 5766 5761 5757 5754 5750 5747 5742 5738 5733 5728 5723 5719 5714 5710
5709 5718 5729 5738 5744 5751 5757 5760 5767 5772 5773 5772 5769 5771 5772 5773 5775 5775 5775 5776 5777 5775 5772 5770 5770 5768 5765 5763 5761 5758 5754 5749 5746 5742 5738 5734 5731 5728 5723 5717 5713 5710 5706 5702
5694 5705 5713 5721 5728 5733 5740 5746 5750 5755 5759 5759 5758 5757 5758 5757 5758 5760 5761 5762 5762 5760 5757 5756 5755 5754 5753 5751 5749 5744 5741 5738 5735 5732 5728 5723 5717 5711 5709 5703 5699 5696 5695 5692
5680 5692 5697 5704 5715 5720 5723 5727 5732 5737 5740 5745 5745 5743 5744 5743 5744 5746 5747 5748 5747 5746 5745 5744 5743 5741 5740 5739 5737 5733 5729 5727 5725 5722 5718 5714 5706 5698 5691 5689 5685 5682 5679 5678
5680 5690 5693 5698 5704 5709 5712 5716 5720 5722 5725 5726 5729 5730 5729 5728 5731 5733 5733 5733 5733 5733 5733 5731 5730 5727 5727 5727 5725 5721 5718 5716 5715 5712 5707 5704 5698 5692 5685 5678 5673 5670 5667 5665
5674 5679 5680 5685 5689 5696 5701 5706 5708 5709 5712 5714 5714 5716 5715 5715 5716 5717 5718 5720 5721 5721 5720 5719 5716 5714 5715 5715 5713 5710 5709 5706 5703 5699 5696 5692 5689 5685 5681 5676 5669 5664 5657 5653
5663 5668 5672 5678 5680 5683 5688 5692 5692 5693 5696 5698 5701 5701 5701 5700 5701 5703 5706 5708 5708 5708 5707 5706 5704 5702 5704 5703 5701 5698 5696 5694 5691 5689 5687 5684 5680 5676 5671 5667 5662 5656 5650 5643
5651 5657 5661 5663 5666 5670 5674 5676 5677 5679 5681 5683 5685 5687 5689 5689 5690 5693 5694 5695 5694 5693 5692 5692 5690 5691 5691 5690 5688 5685 5683 5679 5678 5677 5675 5671 5668 5665 5660 5655 5650 5645 5640 5635
5637 5640 5644 5647 5652 5657 5661 5665 5666 5667 5670 5670 5672 5675 5676 5677 5677 5678 5680 5682 5682 5681 5680 5679 5678 5678 5678 5677 5675 5674 5672 5669 5665 5665 5662 5659 5655 5652 5648 5644 5639 5634 5630 5625
5635 5638 5639 5641 5644 5647 5650 5654 5656 5659 5660 5662 5663 5663 5663 5664 5664 5664 5666 5668 5668 5667 5666 5666 5665 5665 5665 5665 5663 5662 5660 5658 5655 5653 5649 5646 5643 5641 5637 5632 5628 5623 5618 5614
5630 5632 5634 5636 5638 5640 5643 5645 5648 5649 5651 5651 5651 5650 5652 5652 5652 5652 5653 5653 5652 5650 5651 5652 5650 5652 5652 5651 5649 5649 5649 5647 5644 5640 5637 5632 5630 5629 5625 5621 5617 5613 5609 5604
5622 5625 5627 5630 5632 5633 5635 5637 5639 5641 5642 5642 5641 5640 5640 5642 5643 5641 5639 5639 5638 5638 5639 5638 5639 5639 5640 5639 5637 5639 5638 5635 5632 5628 5625 5622 5619 5616 5613 5609 5605 5601 5597 5593
5614 5616 5618 5621 5622 5624 5626 5628 5629 5629 5631 5632 5631 5631 5631 5632 5632 5631 5629 5628 5628 5628 5627 5625 5627 5627 5627 5626 5625 5626 5625 5622 5619 5615 5612 5609 5606 5603 5599 5596 5592 5588 5585 5581
5605 5607 5610 5611 5613 5614 5616 5618 5619 5620 5621 5622 5623 5624 5624 5623 5623 5622 5621 5619 5618 5616 5617 5617 5616 5614 5614 5613 5615 5613 5610 5608 5604 5602 5599 5595 5592 5588 5585 5582 5579 5575 5571 5568
5598 5600 5602 5603 5604 5605 5607 5608 5609 5610 5611 5613 5614 5615 5615 5614 5614 5612 5609 5610 5609 5606 5607 5606 5603 5602 5601 5603 5603 5601 5598 5595 5592 5589 5586 5583 5580 5576 5572 5569 5566 5563 5559 5556
5593 5594 5595 5597 5599 5598 5598 5599 5601 5602 5604 5605 5606 5607 5607 5605 5604 5604 5603 5599 5598 5596 5596 5591 5591 5591 5590 5593 5592 5590 5587 5584 5581 5578 5575 5572 5569 5566 5562 5559 5555 5552 5549 5546
5588 5589 5590 5590 5590 5592 5593 5593 5594 5595 5596 5597 5598 5599 5600 5599 5597 5595 5594 5591 5587 5587 5586 5583 5582 5581 5582 5583 5582 5580 5578 5574 5571 5568 5565 5563 5560 5556 5552 5548 5545 5541 5538 5534
5583 5583 5584 5584 5585 5586 5587 5588 5588 5588 5589 5588 5589 5590 5590 5590 5589 5587 5584 5582 5581 5578 5578 5576 5575 5573 5574 5574 5572 5570 5567 5565 5562 5559 5555 5552 5548 5545 5541 5538 5534 5530 5526 5523
5579 5579 5579 5579 5581 5582 5582 5582 5582 5582 5582 5582 5581 5582 5582 5582 5580 5579 5577 5576 5574 5573 5572 5571 5569 5568 5566 5565 5563 5560 5557 5555 5552 5548 5545 5541 5537 5534 5530 5527 5523 5519 5514 5511